Content
SEND FEEDBACK

Daily
Averages
Monthly
Summary
United States of America

CLEARWATER, ALASKA


Home > North America > United States > Alaska
Elevation: 1090 feet     Latitude: 64 03N     Longitude: 145 31W

WEATHER
 
SELECT A DAY
Number of Records: 194,172;   Date Range: 1/1/95 - 12/18/14
 
SHARE

PRINT THIS DATA

[ ← Previous Day ]
WEATHER ALMANAC - FEBRUARY 13, 2013
[ Next Day → ]
[ °C ]   °F
Weather ElementAverageHighLow
Temperature19.2 °F27 °F (4:53 pm)10.9 °F (1:53 am)
Dewpoint8.7 °F12 °F (3:53 pm)6.1 °F (11:53 pm)
Humidity64.1 %84 % (1:53 am)51 % (4:53 pm)
Barometer29.87 in29.90 in (11:53 am)29.84 in (7:53 pm)
Wind Speed15.8 mph23 mph (9:53 am)
Wind Gust29.9 mph (7:53 am)
Weather ElementAverage
Visibility10 mi
Wind DirectionESE (107.8 °)

Weather ElementTotal
Precipitation0.01 in
Heating Degree Days46.1 (Base 65)
Averaged from 23 records on February 13, 2013
WEATHER CONDITIONS BREAKOUT
WIND DIRECTION BREAKOUT
WEATHER BY HOUR - FEBRUARY 13, 2013
[ °C ]   °F
Local TimeTemperatureDewpointHumidityBarometerVisibilityWind DirectionWind SpeedGust SpeedPrecipitationEventsConditions
1:53 AM10.9 °F7.0 °F84 %29.89 in10.0 miESE (120°)9.2 mphClear
2:53 AM14.0 °F9.0 °F80 %29.88 in10.0 miESE (110°)19.6 mphMostly Cloudy
3:53 AM15.1 °F8.1 °F74 %29.88 in10.0 miESE (110°)20.7 mphPartly Cloudy
4:53 AM15.1 °F8.1 °F74 %29.88 in10.0 miESE (110°)18.4 mphPartly Cloudy
5:53 AM16.0 °F8.1 °F71 %29.87 in10.0 miESE (110°)21.9 mph27.6 mphClear
6:53 AM16.0 °F8.1 °F71 %29.87 in10.0 miEast (100°)19.6 mphScattered Clouds
7:53 AM18.0 °F8.1 °F65 %29.86 in10.0 miESE (120°)19.6 mph29.9 mphScattered Clouds
8:53 AM16.0 °F8.1 °F71 %29.87 in10.0 miSE (130°)16.1 mphScattered Clouds
9:53 AM17.1 °F8.1 °F68 %29.88 in10.0 miESE (120°)23.0 mphScattered Clouds
10:53 AM18.0 °F8.1 °F65 %29.88 in10.0 miESE (110°)19.6 mphScattered Clouds
11:53 AM18.0 °F8.1 °F65 %29.90 in10.0 miESE (110°)13.8 mphScattered Clouds
12:53 PM21.9 °F9.0 °F58 %29.88 in10.0 miESE (120°)16.1 mphScattered Clouds
1:53 PM24.1 °F10.0 °F55 %29.88 in10.0 miEast (90°)11.5 mph0.01 inScattered Clouds
2:53 PM24.1 °F10.9 °F57 %29.86 in10.0 miEast (90°)11.5 mphScattered Clouds
3:53 PM26.1 °F12.0 °F55 %29.85 in10.0 miESE (120°)5.8 mphScattered Clouds
4:53 PM27.0 °F10.9 °F51 %29.86 in10.0 miEast (90°)8.1 mphScattered Clouds
5:53 PM25.0 °F10.9 °F55 %29.85 in10.0 miESE (110°)8.1 mphScattered Clouds
6:53 PM21.9 °F10.0 °F60 %29.86 in10.0 miEast (80°)13.8 mphScattered Clouds
7:53 PM21.0 °F9.0 °F60 %29.84 in10.0 miEast (100°)16.1 mph21.9 mphScattered Clouds
8:53 PM19.9 °F8.1 °F60 %29.86 in10.0 miEast (100°)17.3 mphMostly Cloudy
9:53 PM19.0 °F7.0 °F59 %29.85 in10.0 miESE (110°)18.4 mphClear
10:53 PM19.0 °F7.0 °F59 %29.85 in10.0 miESE (110°)17.3 mphClear
11:53 PM19.0 °F6.1 °F57 %29.86 in10.0 miESE (110°)18.4 mphClear
Hourly data recorded from PABI, located miles away from Clearwater, Alaska







STORIES FROM OUR PARTNERS